Погода в Марфино

Россия / Московская область     56°04′26″N   37°33′24″E
темп.,
°C
ветер,
м/с
пор.,
м/с
влажн.,
%
обл.,
%
осадки,
мм/ч
давл.,
гПа
погр.,
м
13 апреля, вт
вт1300:00+8вюв4129094 0.0 1027340
03:00+8вюв41296100 0.0 1026288
06:00+8юв41191100 0.0 1026240
09:00+11ююв41067100 0.0 1025309
12:00+16ююв5848100 0.0 1024595
15:00+19ююв5839100 0.0 10231416
18:00+18ююв49375 0.0 1022422
21:00+13ююв395760 0.0 1023191
14 апреля, ср
ср1400:00+12ююв413563 0.0 1022330
03:00+10ююв386541 0.0 1022174
06:00+8юв36735 0.0 1021122
09:00+12ююв465798 0.0 1021290
12:00+17ююв5740100 0.0 1020838
15:00+18ююв5734100 0.0 10181411
18:00+16ююв3736100 0.0 1018428
21:00+12юв345311 0.0 101864
15 апреля, чт
чт1500:00+10юв2362100 0.0 101855
03:00+9вюв2366100 0.0 101842
06:00+8в226989 0.0 101834
09:00+12вюв2456100 0.0 1018221
12:00+16вюв2340100 0.0 1017719
15:00+18вюв2337100 0.0 10171438
18:00+16св3549100 0.0 1017238
21:00
16 апреля, пт
пт1600:00+10св51183100 0.0 1018365
03:00+8св51188100 0.0 1019382
06:00+7св5128888 0.0 1020411
09:00+9всв697479 0.0 1020504
12:00+12св686096 0.0 1021813
15:00+14всв685684 0.0 10211069
18:00+13всв696192 0.0 10211191
21:00+8всв5127331 0.0 1024719
17 апреля, сб
сб1700:00+8св5126998 0.0 1024668
03:00+5св511635 0.0 1025417
06:00+4св513675 0.0 1026428
09:00+7всв6115179 0.0 1027793
12:00+11всв683814 0.0 10271275
15:00+12св68365 0.0 10271567
18:00+11св68410 0.0 10281423
21:00+7св511560 0.0 1030574